Location: Gartenstadt Hopfengarten
(52.0888°N, 11.6253°E)
Time: 01:15:20
(UTC+00:00)

Daily predictions for brighter satellites

Satellite Brightness Start Highest point End
(mag) Time Altitude Azimuth Time Altitude Azimuth Time Altitude Azimuth
STARLINK-1209 2.8 00:00:07 10° WNW 00:03:14 60° SSW 00:06:22 10° ESE
STARLINK-1247 2.7 00:00:47 10° WNW 00:03:54 73° SSW 00:07:01 10° ESE
STARLINK-1227 2.7 00:01:15 10° WNW 00:04:21 72° SSW 00:07:26 10° ESE
STARLINK-1208 3.6 00:00:12 10° W 00:04:22 84° N 00:08:32 10° E
ATLAS CENTAUR R/B 1.4 00:02:23 10° NW 00:04:31 62° NNE 00:08:26 10° ESE
STARLINK-1226 2.7 00:02:06 10° WNW 00:05:13 72° SSW 00:08:19 10° ESE
STARLINK-1215 2.7 00:03:03 10° WNW 00:06:09 71° SSW 00:09:16 10° ESE
STARLINK-1225 3.7 00:02:24 10° W 00:06:35 80° N 00:10:44 10° E
STARLINK-1217 2.7 00:04:48 10° WNW 00:07:55 70° SSW 00:11:01 10° ESE
Nadezhda 2 Rocket 4.4 00:04:33 23° S 00:08:31 84° E 00:14:40 10° NNE
STARLINK-1229 2.7 00:05:43 10° WNW 00:08:51 69° SSW 00:11:57 10° ESE
STARLINK-1271 3.6 00:05:13 10° W 00:09:22 85° N 00:13:32 10° E
STARLINK-1270 2.7 00:06:35 10° WNW 00:09:42 68° SSW 00:12:49 10° ESE
Cosmos 1726 3.8 00:06:57 10° NW 00:09:47 21° W 00:10:54 18° WSW
Lacrosse 4 Rocket 4.4 00:07:43 10° NNW 00:10:55 19° NNE 00:14:04 10° ENE
GEOS 3 Rocket 3.8 00:07:39 21° SSE 00:11:00 51° SW 00:16:10 10° NW
Cosmos 2058 Rocket 3.0 00:06:44 10° N 00:11:11 88° WSW 00:13:45 25° S
STARLINK-1189 2.7 00:08:26 10° WNW 00:11:32 67° SSW 00:14:39 10° ESE
STARLINK-1230 3.7 00:07:23 10° W 00:11:33 79° N 00:15:43 10° E
Meteor 1-29 2.8 00:08:47 10° NNE 00:12:13 89° WNW 00:13:32 35° SSW
STARLINK-1188 2.7 00:09:19 10° WNW 00:12:25 66° SSW 00:15:32 10° ESE
STARLINK-1235 2.8 00:10:01 10° WNW 00:13:04 57° SSW 00:16:07 10° ESE
STARLINK-1187 2.7 00:10:26 10° WNW 00:13:30 61° SSW 00:16:34 10° ESE
Cosmos 2228 3.5 00:09:33 10° NNW 00:13:39 45° W 00:15:32 27° SSW
STARLINK-1154 3.6 00:10:12 10° WNW 00:14:22 87° NNE 00:18:31 10° ESE
STARLINK-1191 2.7 00:11:48 10° WNW 00:14:53 64° SSW 00:17:57 10° ESE
SJ 16-02 3.2 00:11:06 10° N 00:15:01 30° NE 00:18:56 10° ESE
COSMOS 2455 3.0 00:11:40 23° SSW 00:15:24 65° ESE 00:21:23 10° NE
STARLINK-1221 2.7 00:12:40 10° WNW 00:15:45 64° SSW 00:18:50 10° ESE
STARLINK-1243 3.7 00:12:22 10° W 00:16:32 79° N 00:20:42 10° E
STARLINK-1222 2.7 00:13:33 10° WNW 00:16:38 63° SSW 00:19:43 10° ESE
STARLINK-1214 2.7 00:14:29 10° WNW 00:17:33 62° SSW 00:20:37 10° ESE
Cosmos 1953 4.2 00:15:17 10° NW 00:17:58 17° W 00:19:26 15° WSW
STARLINK-1197 3.6 00:15:10 10° WNW 00:19:20 89° N 00:23:30 10° ESE
Cosmos 1340 Rocket 4.5 00:16:38 10° NW 00:19:43 21° W 00:21:08 18° WSW
SL-14 R/B 3.4 00:18:39 27° S 00:20:36 67° E 00:24:27 10° NNE
STARLINK-1236 3.7 00:17:22 10° W 00:21:32 78° N 00:25:41 10° E
IRAS Rocket 4.3 00:17:53 21° S 00:21:41 67° WSW 00:27:15 10° NNW
Cosmos 1300 2.6 00:19:08 10° N 00:22:59 88° W 00:25:04 26° S
STARLINK-1198 3.5 00:20:08 10° WNW 00:24:18 89° SSW 00:28:27 10° ESE
Okean 1-7 Rocket 3.6 00:22:03 26° S 00:24:36 87° E 00:29:08 10° NNE
Cosmos 1174 3.5 00:23:33 34° S 00:24:46 59° SE 00:28:28 10° NE
Cosmos 921 Rocket 3.7 00:23:34 21° SSE 00:25:58 43° ESE 00:30:04 10° NNE
BREEZE M DEB (TANK) 2.6 00:26:49 34° SSE 00:26:49 34° SSE 00:29:14 10° ESE
COSMOS 2487 3.7 00:23:46 10° NW 00:26:40 25° WSW 00:27:18 24° WSW
STARLINK-1199 3.5 00:25:09 10° WNW 00:29:18 87° SSW 00:33:28 10° ESE
STARLINK-1269 3.7 00:27:19 10° W 00:31:29 77° N 00:35:39 10° E
Cosmos 2219 3.5 00:26:13 10° NNW 00:31:55 69° ENE 00:37:33 10° SE
Cosmos 1626 Rocket 4.2 00:29:36 18° SSE 00:32:30 47° E 00:36:40 10° NNE
STARLINK-1210 3.5 00:30:06 10° WNW 00:34:16 84° SSW 00:38:25 10° ESE
Cosmos 1626 2.1 00:34:31 28° SSW 00:36:24 80° WNW 00:40:08 10° N
STARLINK-1200 3.7 00:32:19 10° W 00:36:30 77° N 00:40:39 10° E
STARLINK-60 3.6 00:36:26 31° S 00:37:10 36° SSE 00:40:09 10° E
Cosmos 1656 Rocket 4.2 00:33:51 16° SW 00:38:19 54° NW 00:43:48 10° NNE
STARLINK-1219 3.5 00:35:05 10° WNW 00:39:15 82° SSW 00:43:24 10° ESE
Nadezhda 1 Rocket 4.0 00:34:14 10° N 00:40:24 90° WSW 00:45:52 14° S
STARLINK-1192 3.8 00:37:19 10° W 00:41:29 77° N 00:45:38 10° E
FALCON 9 R/B 4.1 00:38:25 19° SSW 00:42:42 29° SSE 00:58:54 10° ESE
STARLINK-1211 3.5 00:40:03 10° WNW 00:44:13 79° SSW 00:48:21 10° ESE
STARLINK-1244 3.8 00:42:17 10° W 00:46:27 77° N 00:50:36 10° E
Cosmos 2297 Rocket 2.4 00:41:54 10° NNW 00:47:36 73° ENE 00:53:14 10° SE
MOZ.5/SAFIR/RUBIN 5/SL-8 3.7 00:44:15 18° S 00:47:41 71° WSW 00:52:20 10° NNW
UNK 3.7 00:44:00 14° SSE 00:47:56 90° ENE 00:52:35 10° NNW
STARLINK-1245 3.5 00:45:03 10° WNW 00:49:12 76° SSW 00:53:21 10° ESE
ERBS 4.1 00:46:08 10° WNW 00:49:14 34° N 00:52:20 10° ENE
Cosmos 1812 Rocket 3.8 00:45:54 10° N 00:50:24 73° ENE 00:54:30 12° SSE
CZ-4B R/B 4.3 00:45:53 10° NNE 00:50:48 45° E 00:55:16 13° S
STARLINK-1138 3.7 00:47:16 10° W 00:51:26 78° N 00:55:36 10° E
SL-4 R/B 2.7 00:49:13 20° SW 00:52:14 48° SSE 00:56:46 10° E
STARLINK-1203 3.8 00:49:52 10° W 00:54:06 78° N 00:58:18 10° E
STARLINK-1233 3.5 00:50:02 10° WNW 00:54:10 73° SSW 00:58:18 10° ESE
Cosmos 1437 2.5 00:52:48 28° SSW 00:54:13 83° WNW 00:57:15 10° NNE
Cosmos 1674 4.5 00:53:21 14° WSW 00:55:32 21° WNW 00:58:30 10° NNW
SL-19 R/B 4.4 00:50:34 10° NNE 00:55:52 66° WNW 01:00:04 18° SSW
STARLINK-1143 3.7 00:52:15 10° W 00:56:25 78° N 01:00:35 10° E
STARLINK-1204 3.5 00:55:01 10° WNW 00:59:09 70° SSW 01:03:17 10° ESE
Timation 2 Rocket 4.3 00:53:14 10° NW 00:59:18 47° WSW 01:04:30 13° S
ATLAS CENTAUR R/B 1.4 00:56:56 19° SW 01:00:00 83° NW 01:04:06 10° NE
STARLINK-1241 3.7 00:57:14 10° W 01:01:24 79° N 01:05:34 10° E
SL-16 R/B 2.5 00:56:01 12° S 01:01:47 70° WSW 01:07:59 10° NNW
BREEZE-M R/B 3.9 01:01:07 20° SSW 01:02:56 26° SSE 01:05:34 10° E
NOSS 3-4 (A) 3.7 00:57:31 12° WSW 01:03:05 68° NW 01:09:38 10° NE
NOSS 3-4 (C) 3.7 00:57:37 12° WSW 01:03:11 69° NW 01:09:44 10° NE
STARLINK-1238 3.5 00:59:58 10° WNW 01:04:06 67° SSW 01:08:13 10° ESE
Cosmos 1602 Rocket 3.6 01:01:58 17° S 01:05:13 78° E 01:09:34 10° NNE
Cosmos 1455 2.6 01:01:41 10° N 01:05:25 60° ENE 01:09:07 10° SSE
STARLINK-29 3.8 01:04:34 23° SSW 01:05:51 33° SSE 01:08:45 10° E
STARLINK-1239 3.7 01:02:13 10° W 01:06:23 80° N 01:10:33 10° E
ATLAS 3B R/B 3.3 01:00:36 10° NW 01:06:39 36° WSW 01:12:43 11° S
STARLINK-1201 3.5 01:04:58 10° WNW 01:09:05 64° SSW 01:13:11 10° ESE
BREEZE-M DEB (TANK) 4.1 01:09:30 10° SE 01:09:35 10° SE 01:09:58 10° SE
IRS-1D 4.4 01:04:51 10° NNE 01:10:01 46° E 01:15:05 10° S
CENTAUR R/B 4.3 01:03:58 10° WNW 01:10:01 23° WSW 01:14:47 15° SSW
STARLINK-1240 3.7 01:07:13 10° W 01:11:23 81° N 01:15:32 10° E
GP-B 3.6 01:07:09 10° N 01:11:34 57° E 01:15:57 10° SSE
Meteor 2-1 Rocket 4.2 01:07:10 10° NNW 01:12:41 71° W 01:18:04 11° S
BREEZE-M DEB (TANK) 1.6 01:12:38 22° SW 01:13:51 39° SSE 01:16:05 10° E
STARLINK-1206 3.6 01:09:57 10° WNW 01:14:04 61° SSW 01:18:08 10° SE
Cosmos-2242 3.5 01:10:46 10° N 01:15:00 58° ENE 01:19:12 10° SSE
STARLINK-1216 3.7 01:12:12 10° W 01:16:22 82° N 01:20:31 10° E
Cosmos 1745 Rocket 4.1 01:12:45 16° SSW 01:17:49 69° WNW 01:23:58 10° N
STARLINK-1205 3.6 01:14:56 10° WNW 01:19:02 58° SSW 01:23:05 10° SE
STARLINK-1237 3.7 01:17:11 10° W 01:21:21 83° N 01:25:31 10° E
Cosmos 2181 Rocket 4.3 01:15:05 10° N 01:21:31 77° ENE 01:27:59 10° SSE
RESURS DK-1 2.5 01:19:17 17° SW 01:22:26 69° NW 01:26:35 10° NNE
Cosmos 1356 Rocket 4.2 01:19:09 10° NNW 01:22:57 36° W 01:25:49 16° SSW
Cosmos 2227 Rocket 2.2 01:17:29 10° NNW 01:23:11 76° WSW 01:28:51 10° SSE
SL-08 R/B 4.0 01:18:37 10° SE 01:23:12 56° ENE 01:27:45 10° N
STARLINK-1218 3.7 01:19:54 10° WNW 01:23:58 55° SSW 01:28:01 10° SE
CZ-2D R/B 2.1 01:20:22 10° NNE 01:25:40 78° WNW 01:30:15 14° SSW
Meteor 1-24 Rocket 4.5 01:22:03 14° SW 01:26:14 38° WNW 01:31:17 10° N
STARLINK-1202 3.7 01:22:11 10° W 01:26:21 85° N 01:30:31 10° E
Cosmos 2369 Rocket 4.2 01:23:53 10° W 01:28:08 21° NNW 01:32:22 10° NNE
ADEOS II 2.8 01:23:12 10° NNE 01:28:20 51° E 01:33:27 10° S
Cosmos 1763 Rocket 4.3 01:23:53 10° S 01:28:43 44° ESE 01:33:32 10° NE
STARLINK-1254 3.7 01:24:54 10° WNW 01:28:56 52° SSW 01:32:58 10° SE
Cosmos 1697 Rocket 4.0 01:24:02 10° SSE 01:29:00 33° ESE 01:34:01 10° NE
Cosmos 1703 3.9 01:26:58 10° S 01:30:49 52° E 01:34:40 10° NNE
ATLAS 2AS CENTAUR R/B 3.6 01:24:24 10° WSW 01:32:19 57° NNW 01:40:01 10° NE
STARLINK-1231 3.8 01:29:54 10° WNW 01:33:55 50° SSW 01:37:56 10° SE
Resurs 1-4 Rocket 2.3 01:30:10 10° N 01:35:24 65° WNW 01:40:11 13° SSW
STARLINK-1246 3.6 01:32:08 10° WNW 01:36:18 88° N 01:40:28 10° ESE
STARLINK-1234 4.5 01:34:27 10° W 01:36:31 16° SW 01:37:02 16° SSW
STARLINK-1212 4.2 01:35:36 10° W 01:37:57 20° SW 01:40:20 10° SSE
STARLINK-1105 4.2 01:36:05 10° W 01:38:26 20° SW 01:40:45 10° SSE
STARLINK-1232 3.8 01:34:54 10° WNW 01:38:53 47° SSW 01:42:52 10° SE
STARLINK-1247 4.2 01:37:00 10° W 01:39:21 20° SW 01:41:42 10° SSE
STARLINK-1227 4.2 01:37:29 10° W 01:39:47 19° SW 01:42:06 10° S
ARIANE 5 R/B 3.6 01:35:37 10° NNE 01:40:26 41° E 01:45:09 10° SSE
STARLINK-1226 4.2 01:38:20 10° W 01:40:39 19° SW 01:42:59 10° S
USA 81 4.2 01:36:19 12° SSW 01:41:12 65° W 01:46:29 10° N
STARLINK-1224 3.6 01:37:07 10° WNW 01:41:17 90° SSW 01:45:26 10° ESE
STARLINK-1215 4.3 01:39:17 10° W 01:41:36 19° SW 01:43:54 10° S
STARLINK-52 3.3 01:39:41 15° SW 01:42:11 49° SSE 01:45:18 10° E
NPP 3.8 01:37:28 10° N 01:42:50 67° WNW 01:47:57 11° SSW
STARLINK-1217 4.3 01:41:04 10° W 01:43:20 18° SW 01:45:36 10° S
Cosmos 1758 Rocket 3.5 01:39:23 11° S 01:43:36 89° WNW 01:48:01 10° N
STARLINK-1208 3.9 01:39:52 10° WNW 01:43:50 44° SSW 01:47:46 10° SE
STARLINK-1229 4.3 01:42:01 10° W 01:44:16 18° SW 01:46:31 10° S
STARLINK-1270 4.3 01:42:53 10° W 01:45:07 18° SW 01:47:21 10° S
H-2A R/B 3.1 01:41:43 10° SE 01:45:54 49° ENE 01:50:12 10° N
STARLINK-1225 3.6 01:42:06 10° WNW 01:46:16 87° SSW 01:50:26 10° ESE
STARLINK-1189 4.4 01:44:46 10° W 01:46:57 18° SW 01:49:07 10° S
STARLINK-1188 4.4 01:45:40 10° W 01:47:50 17° SW 01:49:59 10° S
Cosmos 1898 Rocket 3.6 01:43:00 10° NNW 01:48:16 59° WSW 01:53:29 10° S
STARLINK-1271 4.0 01:44:52 10° WNW 01:48:48 42° SSW 01:52:43 10° SE
STARLINK-1191 4.4 01:48:12 10° W 01:50:15 17° SW 01:52:19 10° S
Lacrosse 4 Rocket 1.7 01:45:58 10° NW 01:50:23 74° NE 01:54:39 10° SE
STARLINK-1221 4.5 01:49:04 10° W 01:51:07 16° SW 01:53:10 10° S
STARLINK-1230 3.6 01:47:05 10° WNW 01:51:15 85° SSW 01:55:24 10° ESE
Starlink 7 placeholder 1.7 01:49:43 11° W 01:51:34 81° N 01:53:34 10° ENE
STARLINK-1222 4.5 01:50:00 10° W 01:52:01 16° SW 01:54:02 10° S
Meteor 1-21 Rocket 4.3 01:46:49 11° SSW 01:52:16 68° WNW 01:57:58 10° N
STARLINK-1214 4.5 01:50:55 10° W 01:52:55 16° SW 01:54:53 10° S
IDEFIX/ARIANE 42P 4.3 01:49:01 10° NNE 01:53:42 31° E 01:58:19 10° SSE
SJ 16-02 1.8 01:49:33 10° NW 01:53:44 41° WSW 01:57:54 10° S
Cosmos 2285 Rocket 4.0 01:47:20 10° NNW 01:53:45 79° WSW 02:00:05 10° SSE
STARLINK-1154 4.0 01:49:52 10° W 01:53:46 39° SSW 01:57:38 10° SE
Cosmos 1656 3.8 01:48:20 10° SSW 01:53:56 80° ESE 01:59:35 10° NNE
CZ-4C R/B 3.1 01:51:13 10° S 01:55:53 38° ESE 02:01:24 10° NE
STARLINK-1243 3.6 01:52:04 10° WNW 01:56:13 82° SSW 02:00:22 10° ESE
Cosmos 2084 3.6 01:52:18 11° SW 01:56:36 86° NW 02:01:07 10° NE
Cosmos 468 Rocket 4.0 01:52:26 10° SSW 01:57:35 84° ESE 02:02:44 10° NNE
Cosmos 1937 Rocket 3.5 01:53:22 10° NNW 01:58:33 65° WSW 02:03:45 10° S
STARLINK-1197 4.1 01:54:52 10° W 01:58:42 37° SSW 02:02:32 10° SE
Cosmos 1953 Rocket 3.7 01:55:28 10° S 01:59:55 78° E 02:04:23 10° NNE
Meteor 2-10 Rocket 4.1 01:55:22 10° NNW 02:00:22 41° W 02:05:11 10° SSW
Uosat 12 SS-18 rocket 4.2 01:56:25 10° NW 02:00:46 82° NE 02:05:11 10° SE
STARLINK-1236 3.6 01:57:02 10° WNW 02:01:12 80° SSW 02:05:21 10° ESE
COSMOS 2455 3.9 01:56:08 10° WSW 02:01:43 38° NW 02:07:21 10° NNE
Cosmos 2369 4.3 01:56:48 10° S 02:02:15 53° ESE 02:07:45 10° NE
STARLINK-1198 4.2 01:59:50 10° W 02:03:38 35° SSW 02:07:25 10° SSE
Cosmos 921 Rocket 4.4 02:00:48 10° WSW 02:04:26 27° NW 02:08:08 10° N
Cosmos 1842 Rocket 4.4 02:00:09 10° N 02:04:36 55° ENE 02:08:59 10° SSE
Cosmos 1709 Rocket 4.3 02:02:05 10° SSW 02:08:02 53° WNW 02:14:04 10° N
STARLINK-1199 4.3 02:04:53 10° W 02:08:37 33° SW 02:12:20 10° SSE
Iridium 2 4.1 02:06:06 10° N 02:09:51 64° E 02:13:35 10° SSE
STARLINK-1269 3.6 02:06:59 10° WNW 02:11:08 74° SSW 02:15:16 10° ESE
STARLINK-60 3.0 02:09:57 10° W 02:13:09 82° NNW 02:16:23 10° ENE
STARLINK-1210 4.4 02:09:52 10° W 02:13:33 31° SW 02:17:13 10° SSE
Cosmos 2219 4.3 02:11:05 10° NW 02:15:36 25° WSW 02:20:04 10° SSW
STARLINK-1200 3.6 02:12:00 10° WNW 02:16:08 71° SSW 02:20:15 10° ESE
STARLINK-1320 3.7 02:15:06 10° SW 02:18:01 38° SSE 02:20:58 10° E
STARLINK-1322 3.7 02:15:26 10° SW 02:18:22 38° SSE 02:21:18 10° E
STARLINK-1219 4.4 02:14:53 10° W 02:18:30 29° SW 02:22:05 10° SSE
STARLINK-1324 3.7 02:15:47 10° SW 02:18:43 38° SSE 02:21:39 10° E
Nadezhda 3 Rocket 4.4 02:12:43 10° N 02:18:59 73° ENE 02:25:17 10° SSE
STARLINK-1294 3.7 02:16:03 10° SW 02:18:59 39° SSE 02:21:58 10° E
STARLINK-1261 3.7 02:16:25 10° SW 02:19:22 39° SSE 02:22:18 10° E
STARLINK-1325 3.6 02:16:47 10° SW 02:19:43 39° SSE 02:22:40 10° E
STARLINK-1192 3.6 02:16:58 10° WNW 02:21:06 68° SSW 02:25:13 10° ESE
Cosmos 1980 Rocket 3.2 02:15:54 10° S 02:21:11 44° ESE 02:26:31 10° NE
